sat.trackr.live / text

‹ back to catalog

STARLINK-36987

NORAD 68321 · 2026-059A

PAYLOAD ACTIVE UNKNOWN

§ Identity

Operator
Country
US
Launch date
2026-03-22
Launch site
AFETR
Launch vehicle
Mass (kg)
RCS (m²)

Purposes: comms

External: N2YO · Heavens-Above · Gunter

§ Orbital elements

Epoch: 2026-09-20T03:36:08.913024Z

Period
93.85 min
Inclination
53.1597°
Eccentricity
0.0001220
Mean motion
15.34412408 rev/d
Perigee alt
461.8 km
Apogee alt
463.5 km
Semi-major
6,840.8 km
B*
4.6953e-4
RAAN
163.2218°
Arg perigee
86.8223°
Mean anomaly
273.2919°
Rev number
2,797

§ Raw data

STARLINK-369871 68321U 26059A   26263.15010316  .00015527  00000+0  46953-3 0  99972 68321  53.1597 163.2218 0001220  86.8223 273.2919 15.34412408 27979

JSON: /api/v1/satellites/68321 · /tle

For live sub-satellite position, see the globe view (requires WebGL).

§ Visibility from observer

Set your observer location to see the next 7 days of passes ≥ 10°. The values pass through the URL so the page stays shareable.

No JS? Fill the form by hand. The geolocation button needs JavaScript.